Location: Aula-Vintri
(58.3875°N, 22.4322°E)
Time: 08:54:48
(UTC+00:00)

Resurs 01 Rocket - Pass Details

Date: 13 October 2019
Orbit: 634 x 645 km, 98.0° (Epoch: 17 November)

Event Time Altitude Azimuth Distance (km) Brightness Sun altitude
Exits shadow 17:34:25 30° 86° (E) 1,153 2.4 -16.8°
Maximum altitude 17:35:23 34° 60° (ENE) 1,073 2.4 -17.0°
Drops below altitude 10° 17:39:25 10° 356° (N) 2,058 4.4 -17.5°
Sets 17:41:46 0° 347° (NNW) 2,972 5.4 -17.8°
